Location: Unspecified
(0.0000°N, 0.0000°E)
Time: 16:33:18
(UTC+00:00)

Telstar 2 - Visible Passes

Search period start: 13 May 2025 00:00
Search period end: 23 May 2025 00:00
Orbit: 962 x 10808 km, 42.8° (Epoch: 12 May)

Date Brightness Start Highest point End Pass type
(mag) Time Alt. Az. Time Alt. Az. Time Alt. Az.
13 May 12.1 05:00:15 12° WSW 05:45:35 19° SSW 06:08:53 10° SSE visible
13 May 11.9 18:23:44 10° NNE 18:31:02 11° NE 18:41:22 10° ENE visible
13 May 12.0 22:11:49 10° NW 22:53:51 78° ENE 00:19:29 10° SE visible
14 May 12.4 02:29:43 10° WNW 03:37:51 33° SW 04:32:06 10° SSE visible
14 May 12.0 20:38:44 10° NNW 21:10:59 49° ENE 22:30:53 10° SE visible
15 May 12.3 00:42:14 10° WNW 02:05:45 49° SSW 02:54:51 10° SSE visible
15 May 11.9 19:07:53 10° N 19:29:18 25° NE 19:57:20 19° E visible
15 May 12.0 23:03:52 10° NW 00:38:22 46° SSE 01:15:39 10° SE visible
16 May 12.2 04:23:49 19° SW 04:54:08 22° SSW 05:26:07 10° SSE visible
16 May 11.9 21:29:15 10° NNW 22:06:22 70° ENE 23:32:18 10° SE visible
17 May 12.5 01:41:22 10° WNW 02:56:19 38° SW 03:48:40 10° SSE visible
17 May 11.9 19:56:53 10° NNW 20:24:54 43° ENE 20:45:49 37° E visible
17 May 12.2 23:57:39 10° WNW 01:28:44 46° S 02:10:27 10° SSE visible
18 May 11.9 05:29:17 10° SW 06:06:09 17° S 06:21:43 10° SSE visible
18 May 11.8 18:27:14 10° N 18:43:53 19° NE 19:17:32 11° E visible
18 May 12.0 22:20:45 10° NW 00:01:05 37° SSE 00:29:49 10° SE visible
19 May 12.4 03:46:30 25° SW 04:00:36 26° SSW 04:43:00 10° SSE visible
19 May 11.8 20:46:59 10° NNW 21:19:37 63° ENE 22:44:00 10° SE visible
20 May 12.5 00:54:39 10° WNW 02:18:45 40° SSW 03:04:49 10° SSE visible
20 May 11.9 19:15:17 10° N 19:39:25 36° ENE 20:06:29 28° E visible
20 May 12.1 23:13:41 10° NW 00:50:58 41° SSE 01:25:30 10° SSE visible
21 May 12.1 04:36:23 13° SW 05:17:50 19° S 05:38:42 10° SSE visible
21 May 11.7 17:47:50 10° NNE 17:58:48 14° NE 18:18:15 10° ENE visible
21 May 11.9 21:37:59 10° NW 22:15:17 85° NE 23:43:10 10° SE visible
22 May 12.5 01:58:37 10° W 03:08:30 30° SW 03:59:32 10° SSE visible
22 May 11.8 20:04:55 10° NNW 20:33:34 56° ENE 20:55:44 47° E visible
